National Weather Service Raw Text Product

Displaying AFOS PIL: RWRIA Received: 2018-07-12 06:00 UTC


409 
ASUS43 KDMX 120606
RWRIA 

WEATHER ROUNDUP FOR IOWA
NATIONAL WEATHER SERVICE DES MOINES IA
100 AM CDT THU JUL 12 2018

NOTE: "FAIR" INDICATES FEW OR NO CLOUDS BELOW 12,000 FEET WITH NO
SIGNIFICANT WEATHER AND/OR OBSTRUCTIONS TO VISIBILITY.

* - THESE STATIONS ARE NOT NWS STATIONS...THUS NOT UNDER NWS
QUALITY CONTROL.  THEY ALSO DO NOT REPORT WEATHER SUCH 
AS PRECIPITATION OR FOG.  

IAZ001>003-012>014-020>022-031>034-043>046-120700-
   NORTHWEST IOWA
  
CITY           SKY/WX    TMP DP  RH WIND       PRES   REMARKS
CARROLL *      CLEAR     77  75  94 S6        30.04S                  
CHEROKEE *     CLEAR     76  74  92 S7        30.01S                  
DENISON *      CLEAR     79  73  83 SE9G15    30.04S HX  82           
LE MARS *      CLEAR     79  72  78 S9        29.99S HX  82           
ORANGE CITY *  CLEAR     81  73  78 S7        30.00S HX  85           
SHELDON *      CLEAR     79  73  83 S8        29.99R HX  82           
SIOUX CITY     CLEAR     79  74  84 S9        29.99S HX  82           
6HR MIN TEMP:  79; 6HR MAX TEMP:  89;                                

STORM LAKE *   CLEAR     75  73  94 S9        30.03S                  
$$
 
IAZ055>058-069>071-079>083-090>094-120700-
   SOUTHWEST IOWA
  
CITY           SKY/WX    TMP DP  RH WIND       PRES   REMARKS
ATLANTIC *     MOCLDY    81  73  78 S6        30.04S HX  85           
AUDUBON *      CLEAR     75  72  88 SE3       30.06S                  
CLARINDA *     CLEAR     75  72  88 CALM      30.07R                  
COUNCIL BLFS * CLEAR     81  72  74 S10       30.03S HX  84           
CRESTON *      CLEAR     77  68  73 S7        30.09S                  
HARLAN  *        N/A     77  73  88 CALM      30.04S                  
LAMONI         CLEAR     78  64  61 S5        30.09R HX  80           
6HR MIN TEMP:  77; 6HR MAX TEMP:  92;                                

RED OAK *      MOCLDY    79  72  78 S5        30.05R HX  82           
SHENANDOAH *     N/A     79  70  73 S8        30.05R HX  81           
$$
 
IAZ047>049-059>061-072>074-084-120700-
   CENTRAL IOWA
  
CITY           SKY/WX    TMP DP  RH WIND       PRES   REMARKS
AMES           CLEAR     75  68  78 SE8       30.07S                  
6HR MIN TEMP:  75; 6HR MAX TEMP:  88;                                

ANKENY *       CLEAR     77  68  73 S9        30.08R                  
BOONE *        CLEAR     75  70  83 SE8       30.06S                  
CHARITON *     CLEAR     75  64  69 SE8       30.09R                  
DES MOINES     CLEAR     78  66  66 SE12      30.06S HX  80           
6HR MIN TEMP:  78; 6HR MAX TEMP:  91;                                

GRINNELL*      CLEAR     73  63  72 SE9       30.11R                  
KNOXVILLE *    CLEAR     75  64  69 SE9       30.08R                  
MARSHALLTOWN   CLEAR     73  66  78 SE8       30.07S                  
6HR MIN TEMP:  73; 6HR MAX TEMP:  85;                                

NEWTON *       CLEAR     72  64  78 SE8       30.09S                  
PELLA *        CLEAR     75  62  63 SE7       30.10R                  
PERRY *        FAIR      76  70  80 SE8       30.06S                  
$$
 
IAZ004>006-015-016-023>025-035-036-120700-
   NORTH CENTRAL IOWA
  
CITY           SKY/WX    TMP DP  RH WIND       PRES   REMARKS
ALGONA *       CLEAR     79  70  73 S17       30.03S HX  81           
CLARION *      CLEAR     77  66  69 S12       30.05F                  
ESTHERVILLE    CLEAR     78  74  87 S16       30.00F HX  81           
6HR MIN TEMP:  78; 6HR MAX TEMP:  88;                                

MASON CITY     CLEAR     73  67  81 S12       30.06F                  
6HR MIN TEMP:  73; 6HR MAX TEMP:  85;                                

FOREST CITY *  FAIR      75  66  73 S13       30.04S                  
WEBSTER CITY * CLEAR     75  68  78 SE12      30.04S                  
IOWA FALLS *   FAIR      73  65  78 SE7       30.09S                  
$$

IAZ007>011-017>019-026>030-037>042-050>054-066-120700-
   NORTHEAST IOWA
  
CITY           SKY/WX    TMP DP  RH WIND       PRES   REMARKS
CEDAR RAPIDS   FAIR      71  65  81 SE7       30.09F                  
6HR MIN TEMP:  70; 6HR MAX TEMP:  84;                                

CHARLES CITY * FAIR      73  66  78 S10       30.08S                  
CLINTON *      FAIR      71  66  84 S3        30.13S                  
DECORAH *      MOCLDY    72  66  83 S8        30.09R                  
DUBUQUE        FAIR      71  63  75 S9        30.13R                  
6HR MIN TEMP:  71; 6HR MAX TEMP:  83;                                

MONTICELLO *   FAIR      68  66  94 SE6       30.11S                  
OELWEIN *      FAIR      70  68  94 SE8       30.10S                  
WATERLOO       FAIR      74  65  73 S13       30.07S                  
6HR MIN TEMP:  73; 6HR MAX TEMP:  84;                                

$$
 
IAZ064-065-067-068-078-120700-
   EAST CENTRAL IOWA
  
CITY           SKY/WX    TMP DP  RH WIND       PRES   REMARKS
DAVENPORT      FAIR      66  63  90 SE5       30.14S                  
6HR MIN TEMP:  66; 6HR MAX TEMP:  84;                                

IOWA CITY      FAIR      71  66  84 SE3       30.12S                  
6HR MIN TEMP:  71; 6HR MAX TEMP:  86;                                

MT. PLEASANT * CLEAR     68  63  83 SE6       30.12R                  
MUSCATINE *      N/A     70  64  83 CALM      30.11S                  
QUAD CITIES    FAIR      72  66  81 CALM      30.12R                  
6HR MIN TEMP:  70; 6HR MAX TEMP:  86;                                

$$
 
IAZ062-063-075>077-085>089-095>099-120700-
   SOUTHEAST IOWA
  
CITY           SKY/WX    TMP DP  RH WIND       PRES   REMARKS
BURLINGTON     CLEAR     76  67  73 SE8       30.12R                  
6HR MIN TEMP:  75; 6HR MAX TEMP:  86;                                

FAIRFIELD *    CLEAR     72  63  73 S7        30.10S                  
FORT MADISON * CLEAR     72  66  83 CALM      30.13R                  
KEOKUK *       CLEAR     73  68  83 SE6       30.11S                  
OSKALOOSA *    FAIR      69  64  85 S7        30.10S                  
CENTERVILLE *    N/A     73  63  68 CALM      30.12S                  
OTTUMWA        CLEAR     75  63  66 S10       30.09F                  
6HR MIN TEMP:  75; 6HR MAX TEMP:  87;                                

WASHINGTON *   CLEAR     72  70  94 SE8       30.11S                  
$$

ABBREVIATIONS USED IN REMARKS
   TC - TEMPERATURES IN CELSIUS
  WCI - WIND CHILL INDEX
   HX - HEAT INDEX
  VSB - VISIBILITY  
$$

  

017 
ASUS43 KDMX 120601
RWRIA 

WEATHER ROUNDUP FOR IOWA
NATIONAL WEATHER SERVICE DES MOINES IA
100 AM CDT THU JUL 12 2018

NOTE: "FAIR" INDICATES FEW OR NO CLOUDS BELOW 12,000 FEET WITH NO
SIGNIFICANT WEATHER AND/OR OBSTRUCTIONS TO VISIBILITY.

* - THESE STATIONS ARE NOT NWS STATIONS...THUS NOT UNDER NWS
QUALITY CONTROL.  THEY ALSO DO NOT REPORT WEATHER SUCH 
AS PRECIPITATION OR FOG.  

IAZ001>003-012>014-020>022-031>034-043>046-120700-
   NORTHWEST IOWA
  
CITY           SKY/WX    TMP DP  RH WIND       PRES   REMARKS
CARROLL *      CLEAR     77  75  94 S6        30.04S                  
CHEROKEE *     CLEAR     76  74  92 S7        30.01S                  
DENISON *      CLEAR     79  73  83 SE9G15    30.04S HX  82           
LE MARS *      CLEAR     79  72  78 S9        29.99S HX  82           
ORANGE CITY *  CLEAR     81  73  78 S7        30.00S HX  85           
SHELDON *      CLEAR     79  73  83 S8        29.99R HX  82           
SIOUX CITY     CLEAR     79  74  84 S9        29.99S HX  82           
6HR MIN TEMP:  79; 6HR MAX TEMP:  89;                                

STORM LAKE *   CLEAR     75  73  94 S9        30.03S                  
$$
 
IAZ055>058-069>071-079>083-090>094-120700-
   SOUTHWEST IOWA
  
CITY           SKY/WX    TMP DP  RH WIND       PRES   REMARKS
ATLANTIC *     MOCLDY    81  73  78 S6        30.04S HX  85           
AUDUBON *      CLEAR     75  72  88 SE3       30.06S                  
CLARINDA *     CLEAR     75  72  88 CALM      30.07R                  
COUNCIL BLFS * CLEAR     81  72  74 S10       30.03S HX  84           
CRESTON *      CLEAR     77  68  73 S7        30.09S                  
HARLAN  *        N/A     77  73  88 CALM      30.04S                  
LAMONI         CLEAR     78  64  61 S5        30.09R HX  80           
6HR MIN TEMP:  77; 6HR MAX TEMP:  92;                                

RED OAK *      MOCLDY    79  72  78 S5        30.05R HX  82           
SHENANDOAH *     N/A     79  70  73 S8        30.05R HX  81           
$$
 
IAZ047>049-059>061-072>074-084-120700-
   CENTRAL IOWA
  
CITY           SKY/WX    TMP DP  RH WIND       PRES   REMARKS
AMES           CLEAR     75  68  78 SE8       30.07S                  
6HR MIN TEMP:  75; 6HR MAX TEMP:  88;                                

ANKENY *       CLEAR     77  68  73 S9        30.08R                  
BOONE *        CLEAR     75  70  83 SE8       30.06S                  
CHARITON *     CLEAR     75  64  69 SE8       30.09R                  
DES MOINES     CLEAR     78  66  66 SE12      30.06S HX  80           
6HR MIN TEMP:  78; 6HR MAX TEMP:  91;                                

GRINNELL*      CLEAR     73  63  72 SE9       30.11R                  
KNOXVILLE *    CLEAR     75  64  69 SE9       30.08R                  
MARSHALLTOWN   CLEAR     73  66  78 SE8       30.07S                  
6HR MIN TEMP:  73; 6HR MAX TEMP:  85;                                

NEWTON *       CLEAR     72  64  78 SE8       30.09S                  
PELLA *        CLEAR     75  62  63 SE7       30.10R                  
PERRY *        FAIR      76  70  80 SE8       30.06S                  
$$
 
IAZ004>006-015-016-023>025-035-036-120700-
   NORTH CENTRAL IOWA
  
CITY           SKY/WX    TMP DP  RH WIND       PRES   REMARKS
ALGONA *       CLEAR     79  70  73 S17       30.03S HX  81           
CLARION *      CLEAR     77  66  69 S12       30.05F                  
ESTHERVILLE    CLEAR     78  74  87 S16       30.00F HX  81           
6HR MIN TEMP:  78; 6HR MAX TEMP:  88;                                

MASON CITY     CLEAR     73  67  81 S12       30.06F                  
6HR MIN TEMP:  73; 6HR MAX TEMP:  85;                                

IOWA FALLS *   FAIR      73  65  78 SE7       30.09S                  
$$

IAZ007>011-017>019-026>030-037>042-050>054-066-120700-
   NORTHEAST IOWA
  
CITY           SKY/WX    TMP DP  RH WIND       PRES   REMARKS
CEDAR RAPIDS   FAIR      71  65  81 SE7       30.09F                  
6HR MIN TEMP:  70; 6HR MAX TEMP:  84;                                

CHARLES CITY * FAIR      73  66  78 S10       30.08S                  
CLINTON *      FAIR      71  66  84 S3        30.13S                  
DECORAH *      MOCLDY    72  66  83 S8        30.09R                  
DUBUQUE        FAIR      71  63  75 S9        30.13R                  
6HR MIN TEMP:  71; 6HR MAX TEMP:  83;                                

MONTICELLO *   FAIR      68  66  94 SE6       30.11S                  
OELWEIN *      FAIR      70  68  94 SE8       30.10S                  
WATERLOO       FAIR      74  65  73 S13       30.07S                  
6HR MIN TEMP:  73; 6HR MAX TEMP:  84;                                

$$
 
IAZ064-065-067-068-078-120700-
   EAST CENTRAL IOWA
  
CITY           SKY/WX    TMP DP  RH WIND       PRES   REMARKS
DAVENPORT      FAIR      66  63  90 SE5       30.14S                  
6HR MIN TEMP:  66; 6HR MAX TEMP:  84;                                

IOWA CITY      FAIR      71  66  84 SE3       30.12S                  
6HR MIN TEMP:  71; 6HR MAX TEMP:  86;                                

MUSCATINE *      N/A     70  64  83 CALM      30.11S                  
QUAD CITIES    FAIR      72  66  81 CALM      30.12R                  
6HR MIN TEMP:  70; 6HR MAX TEMP:  86;                                

$$
 
IAZ062-063-075>077-085>089-095>099-120700-
   SOUTHEAST IOWA
  
CITY           SKY/WX    TMP DP  RH WIND       PRES   REMARKS
BURLINGTON     CLEAR     76  67  73 SE8       30.12R                  
6HR MIN TEMP:  75; 6HR MAX TEMP:  86;                                

FAIRFIELD *    CLEAR     72  63  73 S7        30.10S                  
FORT MADISON * CLEAR     72  66  83 CALM      30.13R                  
KEOKUK *       CLEAR     73  68  83 SE6       30.11S                  
OSKALOOSA *    FAIR      69  64  85 S7        30.10S                  
CENTERVILLE *    N/A     73  63  68 CALM      30.12S                  
OTTUMWA        CLEAR     75  63  66 S10       30.09F                  
6HR MIN TEMP:  75; 6HR MAX TEMP:  87;                                

WASHINGTON *   CLEAR     72  70  94 SE8       30.11S                  
$$

ABBREVIATIONS USED IN REMARKS
   TC - TEMPERATURES IN CELSIUS
  WCI - WIND CHILL INDEX
   HX - HEAT INDEX
  VSB - VISIBILITY  
$$